Location: Deep Valley
(39.7548°N, 80.4695°W)
Time: 14:23:37
(UTC+00:00)

ISS - Pass Details

Date: 26 November 2020
Orbit: 418 x 419 km, 51.6° (Epoch: 18 January)

Event Time Altitude Azimuth Distance (km) Brightness Sun altitude
Rises 23:11:20 0° 283° (WNW) 2,364 1.2 -13.7°
Reaches altitude 10° 23:14:10 10° 309° (NW) 1,501 -0.5 -14.2°
Maximum altitude 23:16:08 15° 345° (NNW) 1,254 -1.4 -14.6°
Enters shadow 23:17:36 12° 13° (NNE) 1,397 -1.4 -14.8°
